Location: Buckeye Ditch
(40.9104°N, 122.9517°W)
Time: 06:06:11
(UTC+00:00)

BlueWalker 3 - Pass Details

Date: 27 June 2024
Orbit: 461 x 470 km, 53.2° (Epoch: 11 July)

Event Time Altitude Azimuth Distance (km) Brightness Sun altitude
Rises 08:38:05 0° 311° (NW) 2,489 6.0 -25.6°
Reaches altitude 10° 08:40:16 10° 317° (NW) 1,610 5.0 -25.5°
Enters shadow 08:42:41 36° 340° (NNW) 754 3.2 -25.5°
